Time,TemperatureF,DewpointF,PressureIn,WindDirection,WindDirectionDegrees,WindSpeedMPH,WindSpeedGustMPH,Humidity,HourlyPrecipIn,Conditions,Clouds,dailyrainin,SoftwareType,DateUTC
2013-10-07 00:01:00,41.8,39.1,29.86,NW,304,0.0,0.0,90,0.00,,,0.07,VWS V14.01,2013-10-07 05:01:00,
2013-10-07 00:06:00,41.8,39.1,29.86,WNW,303,0.0,0.0,90,0.00,,,0.00,VWS V14.01,2013-10-07 05:06:00,
2013-10-07 00:11:00,41.7,39.0,29.87,WNW,303,0.0,0.0,90,0.00,,,0.00,VWS V14.01,2013-10-07 05:11:00,
2013-10-07 00:16:00,41.6,38.9,29.87,NW,304,0.0,0.0,90,0.00,,,0.00,VWS V14.01,2013-10-07 05:16:00,
2013-10-07 00:21:00,41.5,38.8,29.87,WNW,303,0.0,0.0,90,0.00,,,0.00,VWS V14.01,2013-10-07 05:21:00,
2013-10-07 00:26:00,41.5,38.8,29.87,NW,304,0.0,0.0,90,0.00,,,0.00,VWS V14.01,2013-10-07 05:26:00,
2013-10-07 00:30:00,41.5,38.8,29.87,NW,304,0.0,0.0,90,0.00,,,0.00,VWS V15.00,2013-10-07 05:30:00,
2013-10-07 00:31:00,41.5,38.8,29.87,WNW,303,0.0,0.0,90,0.00,,,0.00,VWS V14.01,2013-10-07 05:31:00,
2013-10-07 00:36:00,41.4,38.7,29.86,NW,304,0.0,0.0,90,0.00,,,0.00,VWS V14.01,2013-10-07 05:36:00,
2013-10-07 00:41:00,41.3,38.6,29.86,NW,304,0.0,0.0,90,0.00,,,0.00,VWS V14.01,2013-10-07 05:41:00,
2013-10-07 00:46:00,41.2,38.5,29.86,WNW,303,0.0,0.0,90,0.00,,,0.00,VWS V14.01,2013-10-07 05:46:00,
2013-10-07 00:51:00,41.2,38.5,29.86,NW,304,0.0,0.0,90,0.00,,,0.00,VWS V14.01,2013-10-07 05:51:00,
2013-10-07 00:56:00,41.1,38.4,29.86,WNW,303,0.0,0.0,90,0.00,,,0.00,VWS V14.01,2013-10-07 05:56:00,
2013-10-07 01:01:00,41.1,38.4,29.86,WNW,303,0.0,0.0,90,0.00,,,0.00,VWS V14.01,2013-10-07 06:01:00,
2013-10-07 01:06:00,41.1,38.4,29.86,NW,304,0.0,0.0,90,0.00,,,0.00,VWS V14.01,2013-10-07 06:06:00,
2013-10-07 01:11:00,41.1,38.4,29.86,NW,304,0.0,0.0,90,0.00,,,0.00,VWS V14.01,2013-10-07 06:11:00,
2013-10-07 01:17:00,41.1,38.4,29.86,WNW,303,0.0,0.0,90,0.00,,,0.00,VWS V14.01,2013-10-07 06:17:00,
2013-10-07 01:22:00,41.1,38.4,29.86,WNW,303,0.0,0.0,90,0.00,,,0.00,VWS V14.01,2013-10-07 06:22:00,
2013-10-07 01:27:00,41.1,38.4,29.86,NW,304,0.0,0.0,90,0.00,,,0.00,VWS V14.01,2013-10-07 06:27:00,
2013-10-07 01:32:00,41.1,38.4,29.86,WNW,303,0.0,0.0,90,0.00,,,0.00,VWS V14.01,2013-10-07 06:32:00,
2013-10-07 01:37:00,41.0,38.3,29.86,WNW,303,0.0,0.0,90,0.00,,,0.00,VWS V14.01,2013-10-07 06:37:00,
2013-10-07 01:42:00,41.0,38.6,29.86,WNW,303,0.0,0.0,91,0.00,,,0.00,VWS V14.01,2013-10-07 06:42:00,
2013-10-07 01:47:00,41.0,38.6,29.86,WNW,303,0.0,0.0,91,0.00,,,0.00,VWS V14.01,2013-10-07 06:47:00,
2013-10-07 01:52:00,40.9,38.5,29.86,WNW,303,0.0,0.0,91,0.00,,,0.00,VWS V14.01,2013-10-07 06:52:00,
2013-10-07 01:57:00,40.9,38.5,29.86,WNW,303,0.0,0.0,91,0.00,,,0.00,VWS V14.01,2013-10-07 06:57:00,
2013-10-07 02:02:00,41.0,38.6,29.86,WNW,302,0.0,0.0,91,0.00,,,0.00,VWS V14.01,2013-10-07 07:02:00,
2013-10-07 02:07:00,41.1,38.7,29.86,WNW,302,0.0,0.0,91,0.00,,,0.00,VWS V14.01,2013-10-07 07:07:00,
2013-10-07 02:12:00,41.2,38.8,29.86,NW,304,0.0,0.0,91,0.00,,,0.00,VWS V14.01,2013-10-07 07:12:00,
2013-10-07 02:17:00,41.3,38.9,29.86,NW,304,0.0,0.0,91,0.00,,,0.00,VWS V14.01,2013-10-07 07:17:00,
2013-10-07 02:22:00,41.3,38.9,29.86,WNW,303,0.0,0.0,91,0.00,,,0.00,VWS V14.01,2013-10-07 07:22:00,
2013-10-07 02:27:00,41.4,39.0,29.86,WNW,303,0.0,0.0,91,0.00,,,0.00,VWS V14.01,2013-10-07 07:27:00,
2013-10-07 02:32:00,41.5,39.1,29.85,WNW,303,0.0,0.0,91,0.00,,,0.00,VWS V14.01,2013-10-07 07:32:00,
2013-10-07 02:37:00,41.5,39.1,29.85,WNW,303,0.0,0.0,91,0.00,,,0.00,VWS V14.01,2013-10-07 07:37:00,
2013-10-07 02:42:00,41.6,39.2,29.85,NW,304,0.0,0.0,91,0.00,,,0.00,VWS V14.01,2013-10-07 07:42:00,
2013-10-07 02:47:00,41.8,39.4,29.85,WNW,303,0.0,0.0,91,0.00,,,0.00,VWS V14.01,2013-10-07 07:47:00,
2013-10-07 02:52:00,42.0,39.6,29.85,NW,304,0.0,0.0,91,0.00,,,0.00,VWS V14.01,2013-10-07 07:52:00,
2013-10-07 02:57:00,42.1,39.7,29.85,NW,304,0.0,0.0,91,0.00,,,0.00,VWS V14.01,2013-10-07 07:57:00,
2013-10-07 03:02:00,42.3,39.9,29.85,WNW,302,0.0,0.0,91,0.00,,,0.00,VWS V14.01,2013-10-07 08:02:00,
2013-10-07 03:07:00,42.4,40.0,29.85,WNW,303,0.0,0.0,91,0.00,,,0.00,VWS V14.01,2013-10-07 08:07:00,
2013-10-07 03:12:00,42.6,40.2,29.85,WNW,303,0.0,0.0,91,0.00,,,0.00,VWS V14.01,2013-10-07 08:12:00,
2013-10-07 03:17:00,42.7,40.3,29.85,WNW,302,0.0,0.0,91,0.00,,,0.00,VWS V14.01,2013-10-07 08:17:00,
2013-10-07 03:22:00,42.9,40.5,29.85,NW,304,0.0,0.0,91,0.00,,,0.00,VWS V14.01,2013-10-07 08:22:00,
2013-10-07 03:27:00,43.0,40.6,29.85,WNW,303,0.0,0.0,91,0.00,,,0.00,VWS V14.01,2013-10-07 08:27:00,
2013-10-07 03:32:00,43.1,40.7,29.85,WNW,303,0.0,0.0,91,0.00,,,0.00,VWS V14.01,2013-10-07 08:32:00,
2013-10-07 03:38:00,43.2,40.8,29.85,NW,304,0.0,0.0,91,0.00,,,0.00,VWS V14.01,2013-10-07 08:38:00,
2013-10-07 03:43:00,43.3,40.8,29.85,WNW,303,0.0,0.0,91,0.00,,,0.00,VWS V14.01,2013-10-07 08:43:00,
2013-10-07 03:48:00,43.3,40.8,29.84,WNW,303,0.0,0.0,91,0.00,,,0.00,VWS V14.01,2013-10-07 08:48:00,
2013-10-07 03:53:00,43.3,40.8,29.84,WNW,303,2.0,4.0,91,0.00,,,0.00,VWS V14.01,2013-10-07 08:53:00,
2013-10-07 03:58:00,43.3,40.8,29.84,WNW,303,0.0,4.0,91,0.00,,,0.00,VWS V14.01,2013-10-07 08:58:00,
2013-10-07 04:00:00,43.3,40.8,29.84,WNW,303,2.0,4.0,91,0.00,,,0.00,VWS V15.00,2013-10-07 09:00:00,
2013-10-07 04:03:00,43.3,40.8,29.84,NW,304,0.0,2.0,91,0.00,,,0.00,VWS V14.01,2013-10-07 09:03:00,
2013-10-07 04:08:00,43.2,40.8,29.84,WNW,303,0.0,2.0,91,0.00,,,0.00,VWS V14.01,2013-10-07 09:08:00,
2013-10-07 04:13:00,43.1,40.7,29.85,WNW,303,0.0,2.0,91,0.00,,,0.00,VWS V14.01,2013-10-07 09:13:00,
2013-10-07 04:18:00,43.0,40.6,29.85,WNW,303,0.0,2.0,91,0.00,,,0.00,VWS V14.01,2013-10-07 09:18:00,
2013-10-07 04:23:00,42.9,40.5,29.85,WNW,303,0.0,2.0,91,0.00,,,0.00,VWS V14.01,2013-10-07 09:23:00,
2013-10-07 04:28:00,42.7,40.3,29.85,WNW,302,0.0,2.0,91,0.00,,,0.00,VWS V14.01,2013-10-07 09:28:00,
2013-10-07 04:33:00,42.6,40.2,29.85,NW,304,0.0,0.0,91,0.00,,,0.00,VWS V14.01,2013-10-07 09:33:00,
2013-10-07 04:38:00,42.5,40.1,29.85,WNW,303,0.0,0.0,91,0.00,,,0.00,VWS V14.01,2013-10-07 09:38:00,
2013-10-07 04:43:00,42.4,40.0,29.85,WNW,303,0.0,0.0,91,0.00,,,0.00,VWS V14.01,2013-10-07 09:43:00,
2013-10-07 04:48:00,42.2,39.8,29.86,NW,304,0.0,0.0,91,0.00,,,0.00,VWS V14.01,2013-10-07 09:48:00,
2013-10-07 04:53:00,42.1,39.7,29.86,WNW,303,0.0,0.0,91,0.00,,,0.00,VWS V14.01,2013-10-07 09:53:00,
2013-10-07 04:58:00,41.9,39.5,29.86,WNW,303,0.0,0.0,91,0.00,,,0.00,VWS V14.01,2013-10-07 09:58:00,
2013-10-07 05:00:00,41.9,39.5,29.86,WNW,303,0.0,0.0,91,0.00,,,0.00,VWS V15.00,2013-10-07 10:00:00,
2013-10-07 05:03:00,41.8,39.4,29.86,NW,304,0.0,0.0,91,0.00,,,0.00,VWS V14.01,2013-10-07 10:03:00,
2013-10-07 05:08:00,41.7,39.3,29.85,NW,304,0.0,0.0,91,0.00,,,0.00,VWS V14.01,2013-10-07 10:08:00,
2013-10-07 05:13:00,41.5,39.1,29.86,WNW,303,0.0,0.0,91,0.00,,,0.00,VWS V14.01,2013-10-07 10:13:00,
2013-10-07 05:18:00,41.4,39.0,29.86,NW,304,0.0,0.0,91,0.00,,,0.00,VWS V14.01,2013-10-07 10:18:00,
2013-10-07 05:23:00,41.3,38.9,29.86,NW,304,0.0,0.0,91,0.00,,,0.00,VWS V14.01,2013-10-07 10:23:00,
2013-10-07 05:28:00,41.2,38.8,29.86,WNW,302,0.0,0.0,91,0.00,,,0.00,VWS V14.01,2013-10-07 10:28:00,
2013-10-07 05:30:00,41.2,38.8,29.86,NW,304,0.0,0.0,91,0.00,,,0.00,VWS V15.00,2013-10-07 10:30:00,
2013-10-07 05:33:00,41.1,38.7,29.86,NW,304,0.0,0.0,91,0.00,,,0.00,VWS V14.01,2013-10-07 10:33:00,
2013-10-07 05:38:00,41.1,38.7,29.86,NW,304,0.0,0.0,91,0.00,,,0.00,VWS V14.01,2013-10-07 10:38:00,
2013-10-07 05:43:00,41.0,38.6,29.86,NW,304,0.0,0.0,91,0.00,,,0.00,VWS V14.01,2013-10-07 10:43:00,
2013-10-07 05:48:00,40.9,38.5,29.86,WNW,303,0.0,0.0,91,0.00,,,0.00,VWS V14.01,2013-10-07 10:48:00,
2013-10-07 05:54:00,40.9,38.5,29.86,WNW,303,0.0,0.0,91,0.00,,,0.00,VWS V14.01,2013-10-07 10:54:00,
2013-10-07 05:59:00,40.9,38.5,29.87,WNW,303,0.0,0.0,91,0.00,,,0.00,VWS V14.01,2013-10-07 10:59:00,
2013-10-07 06:00:00,40.9,38.5,29.87,NW,304,0.0,0.0,91,0.00,,,0.00,VWS V15.00,2013-10-07 11:00:00,
2013-10-07 06:04:00,40.8,38.4,29.87,WNW,302,0.0,0.0,91,0.00,,,0.00,VWS V14.01,2013-10-07 11:04:00,
2013-10-07 06:09:00,40.8,38.4,29.87,NW,304,0.0,0.0,91,0.00,,,0.00,VWS V14.01,2013-10-07 11:09:00,
2013-10-07 06:14:00,40.7,38.3,29.87,WNW,303,0.0,0.0,91,0.00,,,0.00,VWS V14.01,2013-10-07 11:14:00,
2013-10-07 06:19:00,40.6,38.2,29.87,WNW,303,0.0,0.0,91,0.00,,,0.00,VWS V14.01,2013-10-07 11:19:00,
2013-10-07 06:24:00,40.5,38.1,29.87,WNW,303,0.0,0.0,91,0.00,,,0.00,VWS V14.01,2013-10-07 11:24:00,
2013-10-07 06:29:00,40.4,38.0,29.88,WNW,303,0.0,0.0,91,0.00,,,0.00,VWS V14.01,2013-10-07 11:29:00,
2013-10-07 06:34:00,40.3,37.9,29.88,WNW,303,0.0,0.0,91,0.00,,,0.00,VWS V14.01,2013-10-07 11:34:00,
2013-10-07 06:39:00,40.3,37.9,29.88,WNW,303,0.0,0.0,91,0.00,,,0.00,VWS V14.01,2013-10-07 11:39:00,
2013-10-07 06:44:00,40.2,37.8,29.88,NW,304,0.0,0.0,91,0.00,,,0.00,VWS V14.01,2013-10-07 11:44:00,
2013-10-07 06:49:00,40.2,37.8,29.88,WNW,303,0.0,0.0,91,0.00,,,0.00,VWS V14.01,2013-10-07 11:49:00,
2013-10-07 06:54:00,40.1,37.7,29.89,WNW,303,0.0,0.0,91,0.00,,,0.00,VWS V14.01,2013-10-07 11:54:00,
2013-10-07 06:59:00,40.1,37.7,29.89,WNW,303,0.0,0.0,91,0.00,,,0.00,VWS V14.01,2013-10-07 11:59:00,
2013-10-07 07:04:00,40.0,37.6,29.89,WNW,303,0.0,0.0,91,0.00,,,0.00,VWS V14.01,2013-10-07 12:04:00,
2013-10-07 07:09:00,39.9,37.5,29.89,NW,304,0.0,0.0,91,0.00,,,0.00,VWS V14.01,2013-10-07 12:09:00,
2013-10-07 07:14:00,39.9,37.5,29.89,NW,304,0.0,0.0,91,0.00,,,0.00,VWS V14.01,2013-10-07 12:14:00,
2013-10-07 07:19:00,39.8,37.4,29.90,NW,304,0.0,0.0,91,0.00,,,0.00,VWS V14.01,2013-10-07 12:19:00,
2013-10-07 07:24:00,39.7,37.3,29.90,WNW,303,0.0,0.0,91,0.00,,,0.00,VWS V14.01,2013-10-07 12:24:00,
2013-10-07 07:29:00,39.6,37.2,29.90,WNW,303,0.0,0.0,91,0.00,,,0.00,VWS V14.01,2013-10-07 12:29:00,
2013-10-07 07:34:00,39.5,37.1,29.90,WNW,303,0.0,0.0,91,0.00,,,0.00,VWS V14.01,2013-10-07 12:34:00,
2013-10-07 07:39:00,39.4,37.0,29.91,NW,304,0.0,0.0,91,0.00,,,0.00,VWS V14.01,2013-10-07 12:39:00,
2013-10-07 07:44:00,39.4,37.0,29.91,WNW,303,0.0,0.0,91,0.00,,,0.00,VWS V14.01,2013-10-07 12:44:00,
2013-10-07 07:49:00,39.4,37.0,29.91,WNW,303,0.0,0.0,91,0.00,,,0.00,VWS V14.01,2013-10-07 12:49:00,
2013-10-07 07:54:00,39.4,37.0,29.92,WNW,303,0.0,0.0,91,0.00,,,0.00,VWS V14.01,2013-10-07 12:54:00,
2013-10-07 07:59:00,39.5,37.1,29.92,WNW,303,0.0,0.0,91,0.00,,,0.00,VWS V14.01,2013-10-07 12:59:00,
2013-10-07 08:04:00,39.7,37.3,29.92,NW,304,0.0,0.0,91,0.00,,,0.00,VWS V14.01,2013-10-07 13:04:00,
2013-10-07 08:10:00,39.9,37.5,29.92,WNW,303,0.0,0.0,91,0.00,,,0.00,VWS V14.01,2013-10-07 13:10:00,
2013-10-07 08:15:00,40.2,37.8,29.92,NW,304,0.0,0.0,91,0.00,,,0.00,VWS V14.01,2013-10-07 13:15:00,
2013-10-07 08:20:00,40.6,38.2,29.92,NW,304,0.0,0.0,91,0.00,,,0.00,VWS V14.01,2013-10-07 13:20:00,
2013-10-07 08:25:00,41.0,38.6,29.92,WNW,303,0.0,0.0,91,0.00,,,0.00,VWS V14.01,2013-10-07 13:25:00,
2013-10-07 08:30:00,41.7,39.3,29.93,WNW,303,0.0,0.0,91,0.00,,,0.00,VWS V14.01,2013-10-07 13:30:00,
2013-10-07 08:35:00,42.5,40.1,29.93,NW,304,0.0,0.0,91,0.00,,,0.00,VWS V14.01,2013-10-07 13:35:00,
2013-10-07 08:40:00,43.3,40.8,29.93,WNW,303,0.0,0.0,91,0.00,,,0.00,VWS V14.01,2013-10-07 13:40:00,
2013-10-07 08:45:00,44.0,41.5,29.93,NW,304,0.0,0.0,91,0.00,,,0.00,VWS V14.01,2013-10-07 13:45:00,
2013-10-07 08:50:00,44.9,42.4,29.93,WNW,303,0.0,0.0,91,0.00,,,0.00,VWS V14.01,2013-10-07 13:50:00,
2013-10-07 08:55:00,45.5,43.3,29.93,WNW,303,0.0,0.0,92,0.00,,,0.00,VWS V14.01,2013-10-07 13:55:00,
2013-10-07 09:00:00,46.0,43.8,29.93,WNW,303,0.0,0.0,92,0.00,,,0.00,VWS V14.01,2013-10-07 14:00:00,
2013-10-07 09:05:00,46.3,44.1,29.94,WNW,303,0.0,0.0,92,0.00,,,0.00,VWS V14.01,2013-10-07 14:05:00,
2013-10-07 09:10:00,46.6,44.4,29.94,WNW,303,0.0,4.0,92,0.00,,,0.00,VWS V14.01,2013-10-07 14:10:00,
2013-10-07 09:15:00,46.9,44.7,29.94,WNW,303,0.0,4.0,92,0.00,,,0.00,VWS V14.01,2013-10-07 14:15:00,
2013-10-07 09:20:00,47.3,45.1,29.94,WNW,302,1.0,4.0,92,0.00,,,0.00,VWS V14.01,2013-10-07 14:20:00,
2013-10-07 09:25:00,47.6,45.4,29.94,WNW,303,0.0,4.0,92,0.00,,,0.00,VWS V14.01,2013-10-07 14:25:00,
2013-10-07 09:30:00,48.0,45.8,29.95,WNW,303,2.0,6.0,92,0.00,,,0.00,VWS V14.01,2013-10-07 14:30:00,
2013-10-07 09:36:00,48.5,46.0,29.95,WNW,303,0.0,3.0,91,0.00,,,0.00,VWS V14.01,2013-10-07 14:36:00,
2013-10-07 09:41:00,49.1,46.6,29.95,WNW,303,0.0,3.0,91,0.00,,,0.00,VWS V14.01,2013-10-07 14:41:00,
2013-10-07 09:46:00,49.8,47.3,29.95,WNW,303,0.0,3.0,91,0.00,,,0.00,VWS V14.01,2013-10-07 14:46:00,
2013-10-07 09:51:00,50.5,47.7,29.95,WNW,303,0.0,3.0,90,0.00,,,0.00,VWS V14.01,2013-10-07 14:51:00,
2013-10-07 09:56:00,51.1,47.4,29.95,WNW,303,0.0,3.0,87,0.00,,,0.00,VWS V14.01,2013-10-07 14:56:00,
2013-10-07 10:00:00,51.9,46.9,29.96,WNW,303,0.0,4.0,83,0.00,,,0.00,VWS V15.00,2013-10-07 15:00:00,
2013-10-07 10:01:00,51.9,46.9,29.96,WNW,302,0.0,4.0,83,0.00,,,0.00,VWS V14.01,2013-10-07 15:01:00,
2013-10-07 10:06:00,52.3,46.7,29.96,WNW,303,5.0,7.0,81,0.00,,,0.00,VWS V14.01,2013-10-07 15:06:00,
2013-10-07 10:11:00,53.0,46.7,29.96,NNW,336,0.0,7.0,79,0.00,,,0.00,VWS V14.01,2013-10-07 15:11:00,
2013-10-07 10:16:00,53.4,46.7,29.96,NNW,336,0.0,7.0,78,0.00,,,0.00,VWS V14.01,2013-10-07 15:16:00,
2013-10-07 10:21:00,53.9,47.2,29.96,NNW,336,0.0,7.0,78,0.00,,,0.00,VWS V14.01,2013-10-07 15:21:00,
2013-10-07 10:26:00,54.3,47.2,29.96,NW,319,0.0,7.0,77,0.00,,,0.00,VWS V14.01,2013-10-07 15:26:00,
2013-10-07 10:30:00,54.8,47.7,29.97,NW,319,0.0,7.0,77,0.00,,,0.00,VWS V15.00,2013-10-07 15:30:00,
2013-10-07 10:31:00,54.8,47.7,29.96,NW,319,0.0,0.0,77,0.00,,,0.00,VWS V14.01,2013-10-07 15:31:00,
2013-10-07 10:36:00,55.3,47.5,29.97,WNW,300,0.0,5.0,75,0.00,,,0.00,VWS V14.01,2013-10-07 15:36:00,
2013-10-07 10:41:00,55.8,47.7,29.97,NW,325,0.0,5.0,74,0.00,,,0.00,VWS V14.01,2013-10-07 15:41:00,
2013-10-07 10:46:00,56.1,47.9,29.97,NW,325,5.0,5.0,74,0.00,,,0.00,VWS V14.01,2013-10-07 15:46:00,
2013-10-07 10:51:00,56.2,47.3,29.97,NW,304,3.0,6.0,72,0.00,,,0.00,VWS V14.01,2013-10-07 15:51:00,
2013-10-07 10:56:00,56.5,46.8,29.97,NNW,329,2.0,7.0,70,0.00,,,0.00,VWS V14.01,2013-10-07 15:56:00,
2013-10-07 11:01:00,56.9,46.8,29.97,NNW,330,3.0,4.0,69,0.00,,,0.00,VWS V14.01,2013-10-07 16:01:00,
2013-10-07 11:06:00,57.2,47.1,29.97,NNW,329,0.0,4.0,69,0.00,,,0.00,VWS V14.01,2013-10-07 16:06:00,
2013-10-07 11:11:00,57.7,46.8,29.97,NNW,330,0.0,4.0,67,0.00,,,0.00,VWS V14.01,2013-10-07 16:11:00,
2013-10-07 11:16:00,58.1,48.0,29.97,NNW,330,0.0,4.0,69,0.00,,,0.00,VWS V14.01,2013-10-07 16:16:00,
2013-10-07 11:21:00,58.5,46.4,29.97,North,6,0.0,7.0,64,0.00,,,0.00,VWS V14.01,2013-10-07 16:21:00,
2013-10-07 11:26:00,59.1,48.2,29.97,North,6,1.0,7.0,67,0.00,,,0.00,VWS V14.01,2013-10-07 16:26:00,
2013-10-07 11:30:00,59.2,47.5,29.97,NW,308,0.0,7.0,65,0.00,,,0.00,VWS V15.00,2013-10-07 16:30:00,
2013-10-07 11:32:00,59.3,47.5,29.97,NW,308,0.0,4.0,65,0.00,,,0.00,VWS V14.01,2013-10-07 16:32:00,
2013-10-07 11:37:00,59.4,47.7,29.97,NW,310,6.0,6.0,65,0.00,,,0.00,VWS V14.01,2013-10-07 16:37:00,
2013-10-07 11:42:00,59.7,46.7,29.97,NNE,19,0.0,6.0,62,0.00,,,0.00,VWS V14.01,2013-10-07 16:42:00,
2013-10-07 11:47:00,60.1,46.6,29.97,NNW,329,4.0,6.0,61,0.00,,,0.00,VWS V14.01,2013-10-07 16:47:00,
2013-10-07 11:52:00,60.3,45.0,29.97,North,356,1.0,9.0,57,0.00,,,0.00,VWS V14.01,2013-10-07 16:52:00,
2013-10-07 11:57:00,60.5,44.7,29.97,NNW,336,3.0,9.0,56,0.00,,,0.00,VWS V14.01,2013-10-07 16:57:00,
2013-10-07 12:00:00,60.7,46.3,29.98,NW,326,5.0,9.0,59,0.00,,,0.00,VWS V15.00,2013-10-07 17:00:00,
2013-10-07 12:02:00,60.7,45.4,29.98,NW,325,4.0,6.0,57,0.00,,,0.00,VWS V14.01,2013-10-07 17:02:00,
2013-10-07 12:07:00,60.9,46.0,29.98,NNW,348,3.0,9.0,58,0.00,,,0.00,VWS V14.01,2013-10-07 17:07:00,
2013-10-07 12:12:00,61.0,45.2,29.98,North,352,6.0,10.0,56,0.00,,,0.00,VWS V14.01,2013-10-07 17:12:00,
2013-10-07 12:17:00,61.1,46.2,29.98,West,271,0.0,10.0,58,0.00,,,0.00,VWS V14.01,2013-10-07 17:17:00,
2013-10-07 12:22:00,61.2,45.9,29.98,NW,307,2.0,10.0,57,0.00,,,0.00,VWS V14.01,2013-10-07 17:22:00,
2013-10-07 12:27:00,61.4,46.0,29.98,NW,307,0.0,10.0,57,0.00,,,0.00,VWS V14.01,2013-10-07 17:27:00,
2013-10-07 12:32:00,61.6,45.8,29.98,NW,305,4.0,9.0,56,0.00,,,0.00,VWS V14.01,2013-10-07 17:32:00,
2013-10-07 12:37:00,61.8,44.5,29.98,NW,312,7.0,9.0,53,0.00,,,0.00,VWS V14.01,2013-10-07 17:37:00,
2013-10-07 12:42:00,62.0,44.2,29.98,NNW,327,5.0,10.0,52,0.00,,,0.00,VWS V14.01,2013-10-07 17:42:00,
2013-10-07 12:47:00,62.2,43.9,29.98,NNW,346,7.0,10.0,51,0.00,,,0.00,VWS V14.01,2013-10-07 17:47:00,
2013-10-07 12:52:00,62.4,44.0,29.97,NNW,338,6.0,10.0,51,0.00,,,0.00,VWS V14.01,2013-10-07 17:52:00,
2013-10-07 12:57:00,62.6,45.2,29.97,NNW,337,0.0,10.0,53,0.00,,,0.00,VWS V14.01,2013-10-07 17:57:00,
2013-10-07 13:00:00,62.7,43.3,29.97,North,351,4.0,10.0,49,0.00,,,0.00,VWS V15.00,2013-10-07 18:00:00,
2013-10-07 13:02:00,62.8,43.4,29.98,North,353,2.0,5.0,49,0.00,,,0.00,VWS V14.01,2013-10-07 18:02:00,
2013-10-07 13:07:00,62.9,45.0,29.97,NNW,333,3.0,5.0,52,0.00,,,0.00,VWS V14.01,2013-10-07 18:07:00,
2013-10-07 13:12:00,62.9,43.5,29.97,NNW,343,4.0,11.0,49,0.00,,,0.00,VWS V14.01,2013-10-07 18:12:00,
2013-10-07 13:17:00,62.8,43.9,29.97,NW,325,0.0,11.0,50,0.00,,,0.00,VWS V14.01,2013-10-07 18:17:00,
2013-10-07 13:22:00,62.9,43.5,29.97,North,356,2.0,11.0,49,0.00,,,0.00,VWS V14.01,2013-10-07 18:22:00,
2013-10-07 13:28:00,63.1,44.2,29.97,NW,314,4.0,11.0,50,0.00,,,0.00,VWS V14.01,2013-10-07 18:28:00,
2013-10-07 13:33:00,63.2,44.3,29.97,NNW,339,0.0,7.0,50,0.00,,,0.00,VWS V14.01,2013-10-07 18:33:00,
2013-10-07 13:38:00,63.2,44.3,29.97,NW,316,0.0,7.0,50,0.00,,,0.00,VWS V14.01,2013-10-07 18:38:00,
2013-10-07 13:43:00,63.1,43.7,29.97,NW,326,0.0,7.0,49,0.00,,,0.00,VWS V14.01,2013-10-07 18:43:00,
2013-10-07 13:48:00,63.1,45.2,29.97,NW,320,1.0,7.0,52,0.00,,,0.00,VWS V14.01,2013-10-07 18:48:00,
2013-10-07 13:53:00,63.2,44.8,29.97,WNW,291,4.0,7.0,51,0.00,,,0.00,VWS V14.01,2013-10-07 18:53:00,
2013-10-07 13:58:00,63.1,44.7,29.97,West,271,1.0,7.0,51,0.00,,,0.00,VWS V14.01,2013-10-07 18:58:00,
2013-10-07 14:03:00,63.1,44.7,29.97,West,275,0.0,4.0,51,0.00,,,0.00,VWS V14.01,2013-10-07 19:03:00,
2013-10-07 14:08:00,63.2,43.2,29.97,WNW,284,0.0,6.0,48,0.00,,,0.00,VWS V14.01,2013-10-07 19:08:00,
2013-10-07 14:13:00,63.4,45.0,29.97,WNW,298,0.0,6.0,51,0.00,,,0.00,VWS V14.01,2013-10-07 19:13:00,
2013-10-07 14:18:00,63.7,45.2,29.97,NW,306,1.0,6.0,51,0.00,,,0.00,VWS V14.01,2013-10-07 19:18:00,
2013-10-07 14:23:00,63.9,44.4,29.97,WNW,294,5.0,7.0,49,0.00,,,0.00,VWS V14.01,2013-10-07 19:23:00,
2013-10-07 14:28:00,64.0,43.9,29.97,North,349,3.0,10.0,48,0.00,,,0.00,VWS V14.01,2013-10-07 19:28:00,
2013-10-07 14:33:00,64.0,43.9,29.97,NNW,346,1.0,1.0,48,0.00,,,0.00,VWS V14.01,2013-10-07 19:33:00,
2013-10-07 14:38:00,64.0,43.9,29.97,NW,307,0.0,7.0,48,0.00,,,0.00,VWS V14.01,2013-10-07 19:38:00,
2013-10-07 14:43:00,64.1,44.0,29.97,NNW,340,0.0,7.0,48,0.00,,,0.00,VWS V14.01,2013-10-07 19:43:00,
2013-10-07 14:48:00,64.2,43.0,29.97,NNW,343,0.0,7.0,46,0.00,,,0.00,VWS V14.01,2013-10-07 19:48:00,
2013-10-07 14:53:00,64.3,44.8,29.97,NNW,341,5.0,7.0,49,0.00,,,0.00,VWS V14.01,2013-10-07 19:53:00,
2013-10-07 14:58:00,64.5,43.8,29.97,NNW,330,0.0,7.0,47,0.00,,,0.00,VWS V14.01,2013-10-07 19:58:00,
2013-10-07 15:03:00,64.6,43.4,29.97,South,190,2.0,3.0,46,0.00,,,0.00,VWS V14.01,2013-10-07 20:03:00,
2013-10-07 15:08:00,64.9,45.3,29.97,WSW,250,0.0,4.0,49,0.00,,,0.00,VWS V14.01,2013-10-07 20:08:00,
2013-10-07 15:14:00,65.1,44.9,29.97,South,187,3.0,6.0,48,0.00,,,0.00,VWS V14.01,2013-10-07 20:14:00,
2013-10-07 15:19:00,65.4,45.8,29.96,WSW,245,1.0,6.0,49,0.00,,,0.00,VWS V14.01,2013-10-07 20:19:00,
2013-10-07 15:24:00,65.5,44.2,29.96,West,260,2.0,6.0,46,0.00,,,0.00,VWS V14.01,2013-10-07 20:24:00,
2013-10-07 15:29:00,65.4,44.7,29.96,West,262,0.0,6.0,47,0.00,,,0.00,VWS V14.01,2013-10-07 20:29:00,
2013-10-07 15:34:00,65.3,43.4,29.96,NNE,14,0.0,4.0,45,0.00,,,0.00,VWS V14.01,2013-10-07 20:34:00,
2013-10-07 15:39:00,65.3,43.4,29.96,WNW,302,1.0,4.0,45,0.00,,,0.00,VWS V14.01,2013-10-07 20:39:00,
2013-10-07 15:44:00,65.3,42.2,29.96,NNW,343,0.0,5.0,43,0.00,,,0.00,VWS V14.01,2013-10-07 20:44:00,
2013-10-07 15:49:00,65.2,43.9,29.96,WNW,302,3.0,5.0,46,0.00,,,0.00,VWS V14.01,2013-10-07 20:49:00,
2013-10-07 15:54:00,65.3,44.0,29.96,SSW,197,0.0,6.0,46,0.00,,,0.00,VWS V14.01,2013-10-07 20:54:00,
2013-10-07 15:59:00,65.6,44.3,29.96,SSW,194,5.0,6.0,46,0.00,,,0.00,VWS V14.01,2013-10-07 20:59:00,
2013-10-07 16:04:00,65.6,43.7,29.96,SSW,194,0.0,1.0,45,0.00,,,0.00,VWS V14.01,2013-10-07 21:04:00,
2013-10-07 16:09:00,65.6,42.5,29.96,NW,304,0.0,6.0,43,0.00,,,0.00,VWS V14.01,2013-10-07 21:09:00,
2013-10-07 16:14:00,65.7,43.2,29.96,SSW,192,0.0,6.0,44,0.00,,,0.00,VWS V14.01,2013-10-07 21:14:00,
2013-10-07 16:19:00,65.7,42.0,29.96,SSW,192,0.0,6.0,42,0.00,,,0.00,VWS V14.01,2013-10-07 21:19:00,
2013-10-07 16:24:00,65.8,42.7,29.96,South,191,0.0,6.0,43,0.00,,,0.00,VWS V14.01,2013-10-07 21:24:00,
2013-10-07 16:29:00,65.8,42.7,29.96,SSW,192,0.0,6.0,43,0.00,,,0.00,VWS V14.01,2013-10-07 21:29:00,
2013-10-07 16:34:00,65.6,43.1,29.96,South,191,0.0,1.0,44,0.00,,,0.00,VWS V14.01,2013-10-07 21:34:00,
2013-10-07 16:39:00,65.6,42.5,29.96,SSW,192,0.0,1.0,43,0.00,,,0.00,VWS V14.01,2013-10-07 21:39:00,
2013-10-07 16:44:00,65.6,43.7,29.96,SSW,193,0.0,1.0,45,0.00,,,0.00,VWS V14.01,2013-10-07 21:44:00,
2013-10-07 16:49:00,65.5,43.6,29.96,SSW,193,0.0,1.0,45,0.00,,,0.00,VWS V14.01,2013-10-07 21:49:00,
2013-10-07 16:54:00,65.5,44.2,29.96,SSW,193,0.0,1.0,46,0.00,,,0.00,VWS V14.01,2013-10-07 21:54:00,
2013-10-07 17:00:00,65.4,42.9,29.96,SSW,192,0.0,2.0,44,0.00,,,0.00,VWS V14.01,2013-10-07 22:00:00,
2013-10-07 17:05:00,65.3,44.6,29.95,SSW,193,0.0,1.0,47,0.00,,,0.00,VWS V14.01,2013-10-07 22:05:00,
2013-10-07 17:10:00,65.2,42.8,29.95,South,191,0.0,3.0,44,0.00,,,0.00,VWS V14.01,2013-10-07 22:10:00,
2013-10-07 17:15:00,65.1,43.3,29.95,SSW,192,0.0,3.0,45,0.00,,,0.00,VWS V14.01,2013-10-07 22:15:00,
2013-10-07 17:20:00,64.8,42.4,29.95,SSW,192,0.0,3.0,44,0.00,,,0.00,VWS V14.01,2013-10-07 22:20:00,
2013-10-07 17:25:00,64.7,42.3,29.95,South,191,0.0,3.0,44,0.00,,,0.00,VWS V14.01,2013-10-07 22:25:00,
2013-10-07 17:30:00,64.5,40.9,29.95,SSW,193,0.0,3.0,42,0.00,,,0.00,VWS V14.01,2013-10-07 22:30:00,
2013-10-07 17:35:00,64.4,42.0,29.95,South,191,0.0,0.0,44,0.00,,,0.00,VWS V14.01,2013-10-07 22:35:00,
2013-10-07 17:40:00,64.3,41.9,29.95,SSW,192,0.0,0.0,44,0.00,,,0.00,VWS V14.01,2013-10-07 22:40:00,
2013-10-07 17:45:00,64.1,41.8,29.95,SSW,192,0.0,0.0,44,0.00,,,0.00,VWS V14.01,2013-10-07 22:45:00,
2013-10-07 17:50:00,64.0,43.9,29.95,SSW,193,0.0,1.0,48,0.00,,,0.00,VWS V14.01,2013-10-07 22:50:00,
2013-10-07 17:55:00,63.7,44.2,29.95,SSW,192,0.0,1.0,49,0.00,,,0.00,VWS V14.01,2013-10-07 22:55:00,
2013-10-07 18:00:00,63.5,43.5,29.95,South,191,0.0,1.0,48,0.00,,,0.00,VWS V14.01,2013-10-07 23:00:00,
2013-10-07 18:05:00,63.2,44.8,29.95,SSW,193,0.0,0.0,51,0.00,,,0.00,VWS V14.01,2013-10-07 23:05:00,
2013-10-07 18:10:00,62.9,45.5,29.95,SSW,192,0.0,0.0,53,0.00,,,0.00,VWS V14.01,2013-10-07 23:10:00,
2013-10-07 18:15:00,62.5,46.1,29.95,SSW,192,0.0,0.0,55,0.00,,,0.00,VWS V14.01,2013-10-07 23:15:00,
2013-10-07 18:20:00,62.1,46.7,29.95,SSW,192,0.0,0.0,57,0.00,,,0.00,VWS V14.01,2013-10-07 23:20:00,
2013-10-07 18:25:00,61.7,47.2,29.95,SSW,193,0.0,0.0,59,0.00,,,0.00,VWS V14.01,2013-10-07 23:25:00,
2013-10-07 18:30:00,61.2,47.2,29.95,SSW,192,0.0,0.0,60,0.00,,,0.00,VWS V14.01,2013-10-07 23:30:00,
2013-10-07 18:35:00,60.6,46.2,29.95,SSW,193,0.0,0.0,59,0.00,,,0.00,VWS V14.01,2013-10-07 23:35:00,
2013-10-07 18:40:00,60.1,47.5,29.95,SSW,193,0.0,0.0,63,0.00,,,0.00,VWS V14.01,2013-10-07 23:40:00,
2013-10-07 18:45:00,59.4,46.8,29.95,SSW,193,0.0,0.0,63,0.00,,,0.00,VWS V14.01,2013-10-07 23:45:00,
2013-10-07 18:50:00,58.7,47.0,29.95,SSW,193,0.0,0.0,65,0.00,,,0.00,VWS V14.01,2013-10-07 23:50:00,
2013-10-07 18:55:00,58.0,46.3,29.95,SSW,193,0.0,0.0,65,0.00,,,0.00,VWS V14.01,2013-10-07 23:55:00,
2013-10-07 19:00:00,57.3,46.0,29.95,SSW,194,0.0,0.0,66,0.00,,,0.00,VWS V14.01,2013-10-08 00:00:00,
2013-10-07 19:06:00,56.7,45.9,29.95,SSW,194,0.0,0.0,67,0.00,,,0.00,VWS V14.01,2013-10-08 00:06:00,
2013-10-07 19:11:00,56.1,45.7,29.95,SSW,194,0.0,0.0,68,0.00,,,0.00,VWS V14.01,2013-10-08 00:11:00,
2013-10-07 19:16:00,55.5,45.5,29.95,SSW,194,0.0,0.0,69,0.00,,,0.00,VWS V14.01,2013-10-08 00:16:00,
2013-10-07 19:21:00,54.9,45.7,29.95,SSW,194,0.0,0.0,71,0.00,,,0.00,VWS V14.01,2013-10-08 00:21:00,
2013-10-07 19:26:00,54.4,45.2,29.96,SSW,194,0.0,0.0,71,0.00,,,0.00,VWS V14.01,2013-10-08 00:26:00,
2013-10-07 19:31:00,53.9,45.1,29.96,SSW,194,0.0,0.0,72,0.00,,,0.00,VWS V14.01,2013-10-08 00:31:00,
2013-10-07 19:36:00,53.4,45.0,29.96,SSW,194,0.0,0.0,73,0.00,,,0.00,VWS V14.01,2013-10-08 00:36:00,
2013-10-07 19:41:00,53.0,45.0,29.96,SSW,194,0.0,0.0,74,0.00,,,0.00,VWS V14.01,2013-10-08 00:41:00,
2013-10-07 19:46:00,52.6,44.9,29.96,SSW,194,0.0,0.0,75,0.00,,,0.00,VWS V14.01,2013-10-08 00:46:00,
2013-10-07 19:51:00,52.3,45.0,29.96,SSW,194,0.0,0.0,76,0.00,,,0.00,VWS V14.01,2013-10-08 00:51:00,
2013-10-07 19:56:00,51.9,44.6,29.96,SSW,194,0.0,0.0,76,0.00,,,0.00,VWS V14.01,2013-10-08 00:56:00,
2013-10-07 20:01:00,51.5,44.5,29.97,SSW,194,0.0,0.0,77,0.00,,,0.00,VWS V14.01,2013-10-08 01:01:00,
2013-10-07 20:06:00,51.2,44.2,29.97,SSW,194,0.0,0.0,77,0.00,,,0.00,VWS V14.01,2013-10-08 01:06:00,
2013-10-07 20:11:00,50.8,43.9,29.97,SSW,194,0.0,0.0,77,0.00,,,0.00,VWS V14.01,2013-10-08 01:11:00,
2013-10-07 20:16:00,50.5,43.6,29.97,SSW,194,0.0,0.0,77,0.00,,,0.00,VWS V14.01,2013-10-08 01:16:00,
2013-10-07 20:21:00,50.3,43.7,29.97,SSW,194,0.0,0.0,78,0.00,,,0.00,VWS V14.01,2013-10-08 01:21:00,
2013-10-07 20:26:00,50.0,43.4,29.97,SSW,194,0.0,0.0,78,0.00,,,0.00,VWS V14.01,2013-10-08 01:26:00,
2013-10-07 20:31:00,49.7,43.5,29.97,SSW,194,0.0,0.0,79,0.00,,,0.00,VWS V14.01,2013-10-08 01:31:00,
2013-10-07 20:36:00,49.5,43.3,29.97,SSW,194,0.0,0.0,79,0.00,,,0.00,VWS V14.01,2013-10-08 01:36:00,
2013-10-07 20:41:00,49.3,43.1,29.97,SSW,194,0.0,0.0,79,0.00,,,0.00,VWS V14.01,2013-10-08 01:41:00,
2013-10-07 20:46:00,49.0,42.8,29.97,SSW,194,0.0,0.0,79,0.00,,,0.00,VWS V14.01,2013-10-08 01:46:00,
2013-10-07 20:51:00,48.8,42.9,29.97,SSW,194,0.0,0.0,80,0.00,,,0.00,VWS V14.01,2013-10-08 01:51:00,
2013-10-07 20:56:00,48.7,42.8,29.97,SSW,194,0.0,0.0,80,0.00,,,0.00,VWS V14.01,2013-10-08 01:56:00,
2013-10-07 21:00:00,48.5,42.6,29.97,SSW,194,0.0,0.0,80,0.00,,,0.00,VWS V15.00,2013-10-08 02:00:00,
2013-10-07 21:01:00,48.5,42.6,29.97,SSW,194,0.0,0.0,80,0.00,,,0.00,VWS V14.01,2013-10-08 02:01:00,
2013-10-07 21:06:00,48.3,42.4,29.97,SSW,194,0.0,0.0,80,0.00,,,0.00,VWS V14.01,2013-10-08 02:06:00,
2013-10-07 21:11:00,48.3,42.4,29.97,SSW,194,0.0,0.0,80,0.00,,,0.00,VWS V14.01,2013-10-08 02:11:00,
2013-10-07 21:16:00,48.2,42.3,29.97,SSW,194,0.0,0.0,80,0.00,,,0.00,VWS V14.01,2013-10-08 02:16:00,
2013-10-07 21:22:00,48.1,42.2,29.97,SSW,195,0.0,0.0,80,0.00,,,0.00,VWS V14.01,2013-10-08 02:22:00,
2013-10-07 21:27:00,47.9,42.0,29.97,SSW,194,0.0,0.0,80,0.00,,,0.00,VWS V14.01,2013-10-08 02:27:00,
2013-10-07 21:30:00,47.9,42.0,29.97,SSW,194,0.0,0.0,80,0.00,,,0.00,VWS V15.00,2013-10-08 02:30:00,
2013-10-07 21:32:00,47.9,42.0,29.97,SSW,194,0.0,0.0,80,0.00,,,0.00,VWS V14.01,2013-10-08 02:32:00,
2013-10-07 21:37:00,47.8,41.9,29.97,SSW,194,0.0,0.0,80,0.00,,,0.00,VWS V14.01,2013-10-08 02:37:00,
2013-10-07 21:42:00,47.8,42.3,29.97,SSW,195,0.0,0.0,81,0.00,,,0.00,VWS V14.01,2013-10-08 02:42:00,
2013-10-07 21:47:00,47.8,42.3,29.97,SSW,194,0.0,0.0,81,0.00,,,0.00,VWS V14.01,2013-10-08 02:47:00,
2013-10-07 21:52:00,47.7,42.2,29.97,SSW,194,0.0,0.0,81,0.00,,,0.00,VWS V14.01,2013-10-08 02:52:00,
2013-10-07 21:57:00,47.6,42.1,29.97,SSW,195,0.0,0.0,81,0.00,,,0.00,VWS V14.01,2013-10-08 02:57:00,
2013-10-07 22:00:00,47.5,42.3,29.97,SSW,194,0.0,0.0,82,0.00,,,0.00,VWS V15.00,2013-10-08 03:00:00,
2013-10-07 22:02:00,47.5,42.3,29.97,SSW,194,0.0,0.0,82,0.00,,,0.00,VWS V14.01,2013-10-08 03:02:00,
2013-10-07 22:07:00,47.4,42.2,29.97,SSW,195,0.0,0.0,82,0.00,,,0.00,VWS V14.01,2013-10-08 03:07:00,
2013-10-07 22:12:00,47.2,42.0,29.97,SSW,194,0.0,0.0,82,0.00,,,0.00,VWS V14.01,2013-10-08 03:12:00,
2013-10-07 22:17:00,47.2,42.3,29.97,SSW,194,0.0,0.0,83,0.00,,,0.00,VWS V14.01,2013-10-08 03:17:00,
2013-10-07 22:22:00,47.0,42.1,29.97,SSW,194,0.0,0.0,83,0.00,,,0.00,VWS V14.01,2013-10-08 03:22:00,
2013-10-07 22:27:00,46.9,42.0,29.97,SSW,194,0.0,0.0,83,0.00,,,0.00,VWS V14.01,2013-10-08 03:27:00,
2013-10-07 22:32:00,46.8,41.9,29.97,SSW,194,0.0,0.0,83,0.00,,,0.00,VWS V14.01,2013-10-08 03:32:00,
2013-10-07 22:37:00,46.7,41.8,29.96,SSW,194,0.0,0.0,83,0.00,,,0.00,VWS V14.01,2013-10-08 03:37:00,
2013-10-07 22:42:00,46.6,42.0,29.96,SSW,195,0.0,0.0,84,0.00,,,0.00,VWS V14.01,2013-10-08 03:42:00,
2013-10-07 22:47:00,46.6,42.0,29.97,SSW,195,0.0,0.0,84,0.00,,,0.00,VWS V14.01,2013-10-08 03:47:00,
2013-10-07 22:52:00,46.5,41.9,29.96,SSW,194,0.0,0.0,84,0.00,,,0.00,VWS V14.01,2013-10-08 03:52:00,
2013-10-07 22:57:00,46.4,41.8,29.96,SSW,195,0.0,0.0,84,0.00,,,0.00,VWS V14.01,2013-10-08 03:57:00,
2013-10-07 23:01:00,46.4,41.8,29.96,SSW,194,0.0,0.0,84,0.00,,,0.00,VWS V14.01,2013-10-08 04:01:00,
2013-10-07 23:02:00,46.4,41.8,29.96,SSW,194,0.0,0.0,84,0.00,,,0.00,VWS V14.01,2013-10-08 04:02:00,
2013-10-07 23:04:00,46.4,41.8,29.96,SSW,195,0.0,0.0,84,0.00,,,0.00,VWS V14.01,2013-10-08 04:04:00,
2013-10-07 23:09:00,46.4,41.8,29.96,SSE,161,0.0,0.0,84,0.00,,,0.00,VWS V14.01,2013-10-08 04:09:00,
2013-10-07 23:14:00,46.6,42.0,29.96,SSE,160,0.0,0.0,84,0.00,,,0.00,VWS V14.01,2013-10-08 04:14:00,
2013-10-07 23:19:00,46.8,42.2,29.96,SE,129,0.0,0.0,84,0.00,,,0.00,VWS V14.01,2013-10-08 04:19:00,
2013-10-07 23:24:00,47.0,42.4,29.96,SE,129,0.0,0.0,84,0.00,,,0.00,VWS V14.01,2013-10-08 04:24:00,
2013-10-07 23:29:00,47.3,42.7,29.96,SE,129,0.0,0.0,84,0.00,,,0.00,VWS V14.01,2013-10-08 04:29:00,
2013-10-07 23:34:00,47.6,42.7,29.96,SE,128,0.0,0.0,83,0.00,,,0.00,VWS V14.01,2013-10-08 04:34:00,
2013-10-07 23:39:00,48.1,43.2,29.95,ESE,119,0.0,0.0,83,0.00,,,0.00,VWS V14.01,2013-10-08 04:39:00,
2013-10-07 23:44:00,48.7,43.5,29.95,ESE,120,0.0,0.0,82,0.00,,,0.00,VWS V14.01,2013-10-08 04:44:00,
2013-10-07 23:49:00,49.1,43.5,29.96,ESE,117,0.0,0.0,81,0.00,,,0.00,VWS V14.01,2013-10-08 04:49:00,
2013-10-07 23:54:00,49.5,43.6,29.95,ESE,118,0.0,0.0,80,0.00,,,0.00,VWS V14.01,2013-10-08 04:54:00,
2013-10-07 23:59:00,49.8,43.6,29.95,ESE,117,0.0,0.0,79,0.00,,,0.00,VWS V14.01,2013-10-08 04:59:00,